Starlink 5123

operational
NORAD ID: 53979 Int'l Des: 2022-125 Owner: SPXS Country: US Constellation: starlink
LEOCIRCULAR

About Starlink 5123

Description loading...

Live Position

Loading 3D Globe...

Upcoming Passes

Altitude History

Altitude vs Time

uPlot chart will show altitude changes over time

Two-Line Element Set

1 53979U 22125R 25350.10316205 -.00001173 00000-0 -55586-4 0 9995
2 53979 53.2164 234.3492 0001794 87.7394 272.3803 15.08839401176774
Epoch: Dec 16, 2025 • Age: 24 hours

Current Status

Altitude 545.0 km
Velocity 7.60 km/s
Sub-Earth Point 53.01°N, 175.82°W
Launch Date Oct 5, 2022
Age 3.1 years
Type internet

Technical Details

Classification Payload
Mass 305.00 kg
Dry Mass 290.00 kg
Total Mass 305.00 kg
Length 0.20 m
Diameter 2.80 m
Span 9.00 m
Shape Box + pan
Manufacturer SPXS
Bus Type Starlink
Phase Status In Orbit
Owner/State SPXS/US

Large Constellations

Loading constellations...